Location: Unspecified
(48.2082°N, 0.0000°E)
Time: 07:59:22
(UTC+00:00)

Transit 4A - Pass Details

Date: 18 June 2019
Orbit: 862 x 982 km, 66.8° (Epoch: 21 July)

Event Time Altitude Azimuth Distance (km) Brightness Sun altitude
Rises 19:08:37 0° 316° (NW) 3,689 12.7 6.8°
Reaches altitude 10° 19:11:48 10° 302° (WNW) 2,727 13.5 6.4°
Maximum altitude 19:16:25 21° 255° (WSW) 1,996 10.4 5.7°
Drops below altitude 10° 19:20:57 10° 208° (SSW) 2,668 10.3 5.0°
Sets 19:24:02 0° 193° (SSW) 3,588 10.8 4.6°
